Погода Готня

Погода Готня : погода сейчас, прогноз погоды и архив. Всё, что Вы хотите узнать о погоде Готня!

Поиск расширенной информации на нашем сайте:

Другие новости

Новости СМИ2

Главная страница сайта

Новости сайта

03.07.2017

Напоминаем, что на нашем специализированном сайте Метеоцентр.Азия вы можете получить высокодетализированные автоматические прогнозы погоды по пунктам России, СНГ и мира в авиационном формате (включающие направление и скорость ветра, видимость, явления погоды, количество и форму облачности, нижнюю и верхнюю границу облачности).


Погода Готня - сегодня

Время (UTC), дата Ветер
(°,м/с) 
Видим.   Явления Облачность Т
(°С)
Тd
(°С)
f(%) Тe
(°С)
Pmin
(гПа)
dP
(гПа)
Po
(мм)
O2
(г/м3)
Тmin Tmax R s Состояние
почвы
12 20.10.17 060 (СВ) 20000 м    6/0 верхняя 
[Ci ing]
+10 +2.9 61 +10  1020.4  -0.3  745  289           
15 20.10.17 030 (СВ) 10 км    6/6 600 м 
[Sc]
+8.9 +4.3 73 +9  1020.7  0.1  745  290           
18 20.10.17 040 (СВ) 10 км    8/0 средняя 
[Ac lent]
+5.6 +1.6 75 +5  1021.8  0.7  746  294    +10.7       
21 20.10.17 060 (СВ) 10 км    ясно 
+2.9 +0.5 84 +2  1022.2  0.2  746  297           
00 21.10.17 060 (СВ) 10 км    ясно 
+1 -0.7 88 +2  1022.1  -0.4  745  299           
03 21.10.17 040 (СВ) 10 км    ясно 
-0.4 -1.9 90 1021.4  -0.8  745  301  -0.7         
06 21.10.17 050 (СВ) 20000 м    4/0 средняя 
[Ac und]
+1.7 -0.2 87 +2  1021.1  -0.1  745  298  -1.3         
09 21.10.17 060 (СВ) 20000 м    10/0 средняя 
[Ac und]
+7 +1.3 67 +6  1020  -0.4  744  292           
12 21.10.17 050 (СВ) 20000 м    10/0 средняя 
[Ac und]
+7.6 +0.2 59 +7  1018.3  -1.7  743  291           
15 21.10.17 060 (СВ) 10 км    10/0 средняя 
[Ac und]
+6.3 +0.1 64 +6  1017.3  -1  742  292           
18 21.10.17 060 (СВ) 10 км    10/0 средняя 
[Ac und]
+5.3 +0.1 69 +5  1016.8  -0.7  742  293    +7.7       
21 21.10.17 060 (СВ) 10 км    10/10 600 м 
[Sc]
+4.7 -0 72 +4  1016.1  -0.7  741  294           
00 22.10.17 070 (В) 10 км  слаб. ливневой дождь  10/10 600 м кучево-дожд. 
[Cb cap]
+2.1 -0.1 85 +1  1016  -0.4  741  296           
03 22.10.17 050 (СВ) 10 км  слаб. ливневой дождь  10/10 600 м кучево-дожд. 
[Cb cap]
+1.9 -0 87 1015.8  -0.2  741  296  +1.8       
06 22.10.17 040 (СВ) 20000 м  {ливн. осадки}  10/10 600 м кучево-дожд. 
[Cb calv]
+2.4 +0.3 86 +1  1016.4  0.6  741  296  +1.8       
09 22.10.17 030 (СВ) 20000 м    8/8 600 м кучево-дожд. 
[Cb calv]
+4.4 +0.2 74 +2  1017  0.9  742  294           
12 22.10.17 030 (СВ) 20000 м    8/8 600 м кучево-дожд. 
[Cb calv]
+4.6 -1.1 66 +2  1017.7  0.7  743  294           
15 22.10.17 040 (СВ) 10 км    6/6 600 м кучево-дожд. 
[Cb calv]
+3.3 -2.7 65 +1  1019.4  1.4  744  296      0.0     
18 22.10.17 010 (С) 10 км    ясно 
-1.6 -4.2 82 -1  1021.2  1.3  745  302    +5.8       
21 22.10.17 060 (СВ) 10 км    ясно 
-2.5 -4.4 87 -2  1022.2  0.9  745  304           
00 23.10.17 220 (ЮЗ) 10 км    ясно 
-3.6 -5 90 -3  1022.8  0.5  746  305           
03 23.10.17 тихо ()   10 км    ясно 
-5.4 -6.4 93 -5  1023  -0.1  746  307  -5.5         
06 23.10.17 160 (Ю) 20000 м    6/0 средняя 
[Ac trans]
-1.1 -3.7 82 -1  1023  0.5  746  302  -5.5         
09 23.10.17 210 (ЮЗ) 20000 м    8/0 верхняя 
[Ci ing]
+3.8 -2.8 62 +3  1022.4  -0.1  746  297           
12 23.10.17 130 (ЮВ) 20000 м    8/0 средняя 
[Ac trans]
+4 -4.3 55 +5  1022.1  -0.2  746  297           
Время (UTC), дата Ветер
(°,м/с) 
Видим.   Явления Облачность Т
(°С)
Тd
(°С)
f(%) Тe
(°С)
Pmin
(гПа)
dP
(гПа)
Po
(мм)
O2
(г/м3)
Тmin Tmax R s Состояние
почвы

Для получения пояснительной информации подведите курсор к названию столбца.

ПОГОДА Готня - архив

Всё, что Вы хотите узнать о погоде Готня - удобно и подробно!

Выберите нужную дату (начиная с 1 января 2015* года) и нажмите кнопку "Найти".
Будут отображены архивные сводки погоды по пункту Готня, начиная с указанной даты.


Отображать данные в формате CSV (для использования в таблицах Excel)


Внимание! Наш архив погоды предназначен исключительно для личного некоммерческого использования в познавательных целях. Если Вам необходимы официальные справки о состоянии погоды (для производственных, юридических, коммерческих и т.п. целей), обращайтесь в органы Росгидромета.

*Примечание: данная дата относится к архиву по метеостанциям СССР (Россия, СНГ, Балтия).
Архив по метеостанциям Зарубежной Европы и Азии (кроме Китая) хранится 10 дней, по другим регионам земного шара (Китай, Африка, Америка, Австралия, Океания) - 1 день.

Готня - район местоположения метеостанции


Название, широта, долгота, высота метеостанции:
Готня 50.8°ш. 35.8°д. 226 м над ур. моря [Российская Федерация]

Дополнительная информация

В oтличие oт бoльшинства пoгoдных сайтoв мы публикуем пoдрoбную метеoинфoрмацию в детальнoм прoфессиoнальнoм фoрмате.

Характеристики температуры и влажнoсти вoздуха измеряются на высoте 2 м в тени вдали oт зданий и деревьев.
Скoрoсть ветра измеряется на высoте 10 м (на урoвне рoста челoвека скoрoсть ветра ниже в 1.5-2 раза). Если метеoстанция нахoдится в гoрoде или в лесу, тo скoрoсть ветра занижена на 2-4 м/с пo сравнению с oткрытым местoм. Скoрoсть ветра над акватoриями крупных рек и oзёр, а также на вершинах хoлмoв на 2-5 м/с выше, чем в oбычных услoвиях.
Атмoсфернoе давление в разных тoчках местнoсти мoжет значительнo oтличаться oт давления на метеoстанции, в зависимoсти oт услoвий рельефа (при пoдъёме на 10 м давление пoнижается примернo на 1 мм рт.ст.).